Time,TemperatureF,DewpointF,PressureIn,WindDirection,WindDirectionDegrees,WindSpeedMPH,WindSpeedGustMPH,Humidity,HourlyPrecipIn,Conditions,Clouds,dailyrainin,SoftwareType,DateUTC
2013-01-10 00:00:00,31.5,28.0,30.33,SE,128,0.0,0.0,87,0.00,CLR,,0.00,WeatherDisplay:10.37,2013-01-10 06:00:00,
2013-01-10 00:10:00,31.5,28.0,30.33,SE,128,0.0,0.0,87,0.00,CLR,,0.00,WeatherDisplay:10.37,2013-01-10 06:10:00,
2013-01-10 00:15:00,31.6,28.1,30.33,SE,127,0.0,0.0,87,0.00,CLR,,0.00,WeatherDisplay:10.37,2013-01-10 06:15:00,
2013-01-10 00:25:00,31.8,28.6,30.33,SE,128,0.0,0.0,88,0.00,CLR,,0.00,WeatherDisplay:10.37,2013-01-10 06:25:00,
2013-01-10 00:30:00,31.8,28.7,30.33,SE,128,0.0,0.0,88,0.00,CLR,,0.00,WeatherDisplay:10.37,2013-01-10 06:30:00,
2013-01-10 00:40:00,32.0,29.1,30.33,SE,128,0.0,0.0,89,0.00,CLR,,0.00,WeatherDisplay:10.37,2013-01-10 06:40:00,
2013-01-10 00:45:00,32.2,29.3,30.33,SE,128,0.0,0.0,89,0.00,CLR,,0.00,WeatherDisplay:10.37,2013-01-10 06:45:00,
2013-01-10 00:55:00,32.4,29.5,30.33,SE,128,0.0,0.0,89,0.00,CLR,,0.00,WeatherDisplay:10.37,2013-01-10 06:55:00,
2013-01-10 01:00:00,32.5,29.7,30.33,SE,128,0.0,0.0,89,0.00,CLR,,0.00,WeatherDisplay:10.37,2013-01-10 07:00:00,
2013-01-10 01:10:00,32.7,30.1,30.30,SE,128,0.0,0.0,90,0.00,CLR,,0.00,WeatherDisplay:10.37,2013-01-10 07:10:00,
2013-01-10 01:15:00,32.9,30.3,30.30,SE,128,0.0,0.0,90,0.00,CLR,,0.00,WeatherDisplay:10.37,2013-01-10 07:15:00,
2013-01-10 01:25:00,33.3,30.6,30.30,SE,128,0.0,0.0,90,0.00,CLR,,0.00,WeatherDisplay:10.37,2013-01-10 07:25:00,
2013-01-10 01:30:00,33.4,31.1,30.30,SE,128,0.0,0.0,91,0.00,CLR,,0.00,WeatherDisplay:10.37,2013-01-10 07:30:00,
2013-01-10 01:40:00,34.0,31.4,30.30,SE,128,0.0,0.0,90,0.00,CLR,,0.00,WeatherDisplay:10.37,2013-01-10 07:40:00,
2013-01-10 01:45:00,34.5,31.8,30.30,ESE,118,0.0,2.0,90,0.00,CLR,,0.00,WeatherDisplay:10.37,2013-01-10 07:45:00,
2013-01-10 01:55:00,35.5,32.6,30.30,ESE,107,0.0,3.0,89,0.00,CLR,,0.00,WeatherDisplay:10.37,2013-01-10 07:55:00,
2013-01-10 02:00:00,36.1,32.6,30.30,ESE,119,0.0,0.0,87,0.00,CLR,,0.00,WeatherDisplay:10.37,2013-01-10 08:00:00,
2013-01-10 02:10:00,37.0,32.9,30.30,ESE,102,0.0,4.0,85,0.00,CLR,,0.00,WeatherDisplay:10.37,2013-01-10 08:10:00,
2013-01-10 02:15:00,37.5,32.8,30.30,ESE,117,1.0,4.0,83,0.00,CLR,,0.00,WeatherDisplay:10.37,2013-01-10 08:15:00,
2013-01-10 02:25:00,38.5,32.5,30.30,ESE,114,0.0,3.0,79,0.00,CLR,,0.00,WeatherDisplay:10.37,2013-01-10 08:25:00,
2013-01-10 02:30:00,38.8,32.5,30.30,ESE,107,0.0,2.0,78,0.00,CLR,,0.00,WeatherDisplay:10.37,2013-01-10 08:30:00,
2013-01-10 02:40:00,39.3,32.1,30.27,SE,124,0.0,3.0,75,0.00,CLR,,0.00,WeatherDisplay:10.37,2013-01-10 08:40:00,
2013-01-10 02:45:00,39.5,31.9,30.27,SE,125,0.0,0.0,74,0.00,CLR,,0.00,WeatherDisplay:10.37,2013-01-10 08:45:00,
2013-01-10 02:55:00,39.9,32.0,30.30,East,90,0.0,6.0,73,0.00,CLR,,0.00,WeatherDisplay:10.37,2013-01-10 08:55:00,
2013-01-10 03:00:00,40.3,32.0,30.30,ESE,118,2.0,4.0,72,0.00,CLR,,0.00,WeatherDisplay:10.37,2013-01-10 09:00:00,
2013-01-10 03:10:00,40.8,32.1,30.27,SE,125,1.0,5.0,71,0.00,CLR,,0.00,WeatherDisplay:10.37,2013-01-10 09:10:00,
2013-01-10 03:15:00,41.0,32.0,30.27,SE,135,1.0,4.0,70,0.00,SCT,,0.00,WeatherDisplay:10.37,2013-01-10 09:15:00,
2013-01-10 03:25:00,41.5,32.1,30.27,ESE,116,2.0,4.0,69,0.00,SCT,,0.00,WeatherDisplay:10.37,2013-01-10 09:25:00,
2013-01-10 03:30:00,41.7,31.9,30.27,ESE,120,3.0,5.0,68,0.00,SCT,,0.00,WeatherDisplay:10.37,2013-01-10 09:30:00,
2013-01-10 03:40:00,42.3,32.4,30.27,SE,129,2.0,4.0,68,0.00,SCT,,0.00,WeatherDisplay:10.37,2013-01-10 09:40:00,
2013-01-10 03:45:00,42.3,32.4,30.27,SE,129,3.0,4.0,68,0.00,SCT,,0.00,WeatherDisplay:10.37,2013-01-10 09:45:00,
2013-01-10 03:55:00,42.3,32.5,30.27,ESE,123,1.0,5.0,68,0.00,SCT,,0.00,WeatherDisplay:10.37,2013-01-10 09:55:00,
2013-01-10 04:00:00,42.4,32.6,30.27,ESE,118,1.0,4.0,68,0.00,SCT,,0.00,WeatherDisplay:10.37,2013-01-10 10:00:00,
2013-01-10 04:10:00,42.3,32.8,30.24,ESE,119,2.0,4.0,69,0.00,SCT,,0.00,WeatherDisplay:10.37,2013-01-10 10:10:00,
2013-01-10 04:15:00,42.3,33.2,30.24,ESE,102,0.0,5.0,70,0.00,OVC,,0.00,WeatherDisplay:10.37,2013-01-10 10:15:00,
2013-01-10 04:25:00,41.9,33.2,30.24,ESE,122,3.0,6.0,71,0.00,OVC,,0.00,WeatherDisplay:10.37,2013-01-10 10:25:00,
2013-01-10 04:30:00,41.7,33.4,30.24,ESE,117,1.0,6.0,72,0.00,OVC,,0.00,WeatherDisplay:10.37,2013-01-10 10:30:00,
2013-01-10 04:40:00,41.4,33.7,30.21,ESE,111,0.0,3.0,74,0.00,OVC,,0.00,WeatherDisplay:10.37,2013-01-10 10:40:00,
2013-01-10 04:45:00,41.2,33.9,30.21,ESE,113,2.0,4.0,75,0.00,OVC,,0.00,WeatherDisplay:10.37,2013-01-10 10:45:00,
2013-01-10 04:55:00,41.0,34.3,30.21,East,93,1.0,8.0,77,0.00,OVC,,0.00,WeatherDisplay:10.37,2013-01-10 10:55:00,
2013-01-10 05:00:00,41.0,34.6,30.21,East,89,3.0,6.0,78,0.00,OVC,,0.00,WeatherDisplay:10.37,2013-01-10 11:00:00,
2013-01-10 05:10:00,40.6,35.3,30.18,ESE,111,2.0,5.0,81,0.01,-RA,,0.01,WeatherDisplay:10.37,2013-01-10 11:10:00,
2013-01-10 05:15:00,40.5,35.4,30.18,ESE,117,1.0,6.0,82,0.00,-RA,,0.01,WeatherDisplay:10.37,2013-01-10 11:15:00,
2013-01-10 05:25:00,40.3,36.1,30.18,East,89,3.0,6.0,85,0.01,-RA,,0.02,WeatherDisplay:10.37,2013-01-10 11:25:00,
2013-01-10 05:30:00,40.2,36.3,30.18,ESE,121,5.0,6.0,86,0.00,-RA,,0.02,WeatherDisplay:10.37,2013-01-10 11:30:00,
2013-01-10 05:40:00,39.8,36.3,30.18,East,99,3.0,6.0,87,0.02,-RA,,0.05,WeatherDisplay:10.37,2013-01-10 11:40:00,
2013-01-10 05:45:00,39.6,36.4,30.18,ESE,102,2.0,4.0,88,0.00,-RA,,0.05,WeatherDisplay:10.37,2013-01-10 11:45:00,
2013-01-10 05:55:00,39.4,36.4,30.18,East,94,2.0,6.0,89,0.01,-RA,,0.06,WeatherDisplay:10.37,2013-01-10 11:55:00,
2013-01-10 06:00:00,39.4,36.7,30.18,ESE,115,2.0,8.0,90,0.00,-RA,,0.06,WeatherDisplay:10.37,2013-01-10 12:00:00,
2013-01-10 06:10:00,39.2,36.8,30.18,ESE,112,6.0,9.0,91,0.00,-RA,,0.07,WeatherDisplay:10.37,2013-01-10 12:10:00,
2013-01-10 06:15:00,39.2,36.8,30.18,ESE,115,3.0,6.0,91,0.00,-RA,,0.07,WeatherDisplay:10.37,2013-01-10 12:15:00,
2013-01-10 06:25:00,39.0,36.9,30.15,ESE,102,3.0,6.0,92,0.00,-RA,,0.08,WeatherDisplay:10.37,2013-01-10 12:25:00,
2013-01-10 06:30:00,39.0,36.9,30.15,ESE,102,2.0,4.0,92,0.00,-RA,,0.08,WeatherDisplay:10.37,2013-01-10 12:30:00,
2013-01-10 06:40:00,38.8,36.7,30.15,East,98,2.0,6.0,92,0.00,-RA,,0.08,WeatherDisplay:10.37,2013-01-10 12:40:00,
2013-01-10 06:45:00,38.8,36.7,30.15,East,99,2.0,6.0,92,0.01,-RA,,0.09,WeatherDisplay:10.37,2013-01-10 12:45:00,
2013-01-10 06:50:00,38.8,37.0,30.15,ESE,105,2.0,8.0,93,0.00,-RA,,0.09,WeatherDisplay:10.37,2013-01-10 12:50:00,
2013-01-10 07:00:00,39.0,37.2,30.15,ESE,111,2.0,6.0,93,0.00,-RA,,0.09,WeatherDisplay:10.37,2013-01-10 13:00:00,
2013-01-10 07:25:00,38.9,37.3,30.12,ESE,104,2.0,4.0,94,0.00,RA,,0.09,WeatherDisplay:10.37,2013-01-10 13:25:00,
2013-01-10 07:30:00,39.0,37.4,30.12,East,92,3.0,6.0,94,0.00,OVC,,0.09,WeatherDisplay:10.37,2013-01-10 13:30:00,
2013-01-10 07:40:00,39.0,37.4,30.12,ESE,107,2.0,6.0,94,0.00,OVC,,0.09,WeatherDisplay:10.37,2013-01-10 13:40:00,
2013-01-10 07:45:00,39.0,37.4,30.12,ESE,123,1.0,8.0,94,0.00,OVC,,0.09,WeatherDisplay:10.37,2013-01-10 13:45:00,
2013-01-10 07:55:00,39.0,37.4,30.12,ESE,109,0.0,4.0,94,0.00,RA,,0.10,WeatherDisplay:10.37,2013-01-10 13:55:00,
2013-01-10 08:00:00,38.8,37.3,30.12,ESE,102,2.0,4.0,94,0.00,OVC,,0.10,WeatherDisplay:10.37,2013-01-10 14:00:00,
2013-01-10 08:05:00,38.8,37.3,30.12,East,90,0.0,0.0,94,0.01,OVC,,0.10,WeatherDisplay:10.37,2013-01-10 14:05:00,
2013-01-10 08:10:00,38.8,37.3,30.12,ESE,112,3.5,3.5,94,0.01,OVC,,0.10,WeatherDisplay:10.37,2013-01-10 14:10:00,
2013-01-10 08:15:00,38.8,37.5,30.12,SE,139,3.5,3.6,95,0.01,OVC,,0.10,WeatherDisplay:10.37,2013-01-10 14:15:00,
2013-01-10 08:20:00,38.8,37.5,30.12,ESE,113,5.8,5.8,95,0.01,OVC,,0.10,WeatherDisplay:10.37,2013-01-10 14:20:00,
2013-01-10 08:25:00,38.8,37.5,30.12,ENE,77,5.8,5.8,95,0.01,OVC,,0.10,WeatherDisplay:10.37,2013-01-10 14:25:00,
2013-01-10 08:30:00,39.0,37.7,30.12,SE,138,3.5,3.5,95,0.02,RA,,0.11,WeatherDisplay:10.37,2013-01-10 14:30:00,
2013-01-10 08:35:00,39.0,37.7,30.12,ESE,121,3.5,3.6,95,0.03,RA,,0.12,WeatherDisplay:10.37,2013-01-10 14:35:00,
2013-01-10 08:40:00,39.0,37.7,30.12,SE,140,5.8,5.8,95,0.03,RA,,0.12,WeatherDisplay:10.37,2013-01-10 14:40:00,
2013-01-10 08:45:00,39.0,37.7,30.12,SE,128,2.3,0.0,95,0.03,OVC,,0.12,WeatherDisplay:10.37,2013-01-10 14:45:00,
2013-01-10 08:50:00,39.0,37.7,30.09,ESE,115,3.5,3.5,95,0.02,OVC,,0.12,WeatherDisplay:10.37,2013-01-10 14:50:00,
2013-01-10 08:55:00,39.0,37.7,30.09,East,94,3.5,3.5,95,0.02,-RA,,0.12,WeatherDisplay:10.37,2013-01-10 14:55:00,
2013-01-10 09:00:00,39.2,37.9,30.09,ESE,123,3.5,3.5,95,0.02,-RA,,0.12,WeatherDisplay:10.37,2013-01-10 15:00:00,
2013-01-10 09:05:00,39.2,37.9,30.09,SE,143,2.3,0.0,95,0.02,-RA,,0.12,WeatherDisplay:10.37,2013-01-10 15:05:00,
2013-01-10 09:10:00,39.2,37.9,30.09,SSE,153,3.5,3.5,95,0.02,-RA,,0.12,WeatherDisplay:10.37,2013-01-10 15:10:00,
2013-01-10 09:15:00,39.2,37.9,30.09,SE,133,4.6,4.6,95,0.02,-RA,,0.12,WeatherDisplay:10.37,2013-01-10 15:15:00,
2013-01-10 09:20:00,39.2,37.9,30.09,SE,124,3.5,3.5,95,0.02,-RA,,0.12,WeatherDisplay:10.37,2013-01-10 15:20:00,
2013-01-10 09:25:00,39.4,38.1,30.09,SE,137,6.9,6.9,95,0.02,-RA,,0.12,WeatherDisplay:10.37,2013-01-10 15:25:00,
2013-01-10 09:30:00,39.4,38.3,30.09,ESE,118,3.5,3.5,96,0.02,-RA,,0.12,WeatherDisplay:10.37,2013-01-10 15:30:00,
2013-01-10 09:35:00,39.4,38.3,30.06,ESE,123,3.5,3.5,96,0.01,OVC,,0.12,WeatherDisplay:10.37,2013-01-10 15:35:00,
2013-01-10 09:40:00,39.4,38.3,30.06,ESE,109,2.3,2.3,96,0.01,RA,,0.13,WeatherDisplay:10.37,2013-01-10 15:40:00,
2013-01-10 09:45:00,39.4,38.3,30.06,East,98,4.5,4.5,96,0.01,RA,,0.13,WeatherDisplay:10.37,2013-01-10 15:45:00,
2013-01-10 09:50:00,39.6,38.5,30.06,SSE,166,5.8,5.8,96,0.01,OVC,,0.13,WeatherDisplay:10.37,2013-01-10 15:50:00,
2013-01-10 09:56:00,39.6,38.5,30.06,SSE,157,5.8,5.8,96,0.01,OVC,,0.13,WeatherDisplay:10.37,2013-01-10 15:56:00,
2013-01-10 10:00:00,43.8,43.3,29.77,SE,135,0.0,0.0,98,0.02,CL,CL,0.12,WeatherDisplay:10.37,2013-01-10 16:00:00,
2013-01-10 10:01:00,39.6,38.5,30.06,SE,124,2.3,0.0,96,0.01,OVC,,0.13,WeatherDisplay:10.37,2013-01-10 16:01:00,
2013-01-10 10:06:00,39.7,38.7,30.06,ESE,122,3.5,3.5,96,0.01,OVC,,0.13,WeatherDisplay:10.37,2013-01-10 16:06:00,
2013-01-10 10:11:00,39.7,38.7,30.06,SE,131,5.8,5.8,96,0.01,OVC,,0.13,WeatherDisplay:10.37,2013-01-10 16:11:00,
2013-01-10 10:16:00,39.9,38.9,30.06,East,83,5.8,5.8,96,0.01,OVC,,0.13,WeatherDisplay:10.37,2013-01-10 16:16:00,
2013-01-10 10:21:00,39.9,38.9,30.03,East,93,3.5,0.0,96,0.01,OVC,,0.13,WeatherDisplay:10.37,2013-01-10 16:21:00,
2013-01-10 10:26:00,40.1,39.1,30.03,SE,127,2.3,2.3,96,0.01,OVC,,0.13,WeatherDisplay:10.37,2013-01-10 16:26:00,
2013-01-10 10:31:00,40.3,39.2,30.03,ESE,107,3.5,3.5,96,0.01,OVC,,0.13,WeatherDisplay:10.37,2013-01-10 16:31:00,
2013-01-10 10:36:00,40.3,39.2,30.00,SSE,147,3.5,3.5,96,0.01,-RA,,0.13,WeatherDisplay:10.37,2013-01-10 16:36:00,
2013-01-10 10:41:00,40.5,39.4,30.00,SE,131,3.5,3.5,96,0.00,-RA,,0.13,WeatherDisplay:10.37,2013-01-10 16:41:00,
2013-01-10 10:46:00,40.5,39.4,30.00,SE,142,3.5,3.5,96,0.00,-RA,,0.13,WeatherDisplay:10.37,2013-01-10 16:46:00,
2013-01-10 10:51:00,40.6,39.6,30.00,SSE,152,5.8,5.8,96,0.00,-RA,,0.13,WeatherDisplay:10.37,2013-01-10 16:51:00,
2013-01-10 10:56:00,40.8,39.8,30.00,SE,134,5.8,5.8,96,0.01,-RA,,0.14,WeatherDisplay:10.37,2013-01-10 16:56:00,
2013-01-10 11:00:00,44.4,43.9,29.77,SW,225,0.0,0.0,98,-0.22,CL,CL,0.12,WeatherDisplay:10.37,2013-01-10 17:00:00,
2013-01-10 11:01:00,41.0,39.9,30.00,ESE,122,3.5,0.0,96,0.01,-RA,,0.14,WeatherDisplay:10.37,2013-01-10 17:01:00,
2013-01-10 11:06:00,41.2,40.1,30.00,SE,145,2.3,0.0,96,0.01,-RA,,0.14,WeatherDisplay:10.37,2013-01-10 17:06:00,
2013-01-10 11:11:00,41.4,40.3,30.00,SE,137,3.5,3.6,96,0.01,-RA,,0.14,WeatherDisplay:10.37,2013-01-10 17:11:00,
2013-01-10 11:16:00,41.5,40.5,30.00,ESE,120,3.5,3.5,96,0.01,OVC,,0.14,WeatherDisplay:10.37,2013-01-10 17:16:00,
2013-01-10 11:21:00,41.5,40.5,30.00,SE,127,5.8,5.8,96,0.01,OVC,,0.14,WeatherDisplay:10.37,2013-01-10 17:21:00,
2013-01-10 11:26:00,41.5,40.5,30.00,East,88,3.5,3.5,96,0.01,OVC,,0.14,WeatherDisplay:10.37,2013-01-10 17:26:00,
2013-01-10 11:31:00,41.4,40.3,30.00,ESE,112,3.5,0.0,96,0.01,OVC,,0.14,WeatherDisplay:10.37,2013-01-10 17:31:00,
2013-01-10 11:36:00,41.4,40.3,29.97,ESE,121,3.5,0.0,96,0.01,OVC,,0.14,WeatherDisplay:10.37,2013-01-10 17:36:00,
2013-01-10 11:41:00,41.5,40.5,29.97,SE,127,4.9,4.9,96,0.01,OVC,,0.14,WeatherDisplay:10.37,2013-01-10 17:41:00,
2013-01-10 11:46:00,41.4,40.3,29.97,East,94,3.5,3.5,96,0.01,OVC,,0.14,WeatherDisplay:10.37,2013-01-10 17:46:00,
2013-01-10 11:51:00,41.4,40.3,29.97,SE,135,3.5,3.5,96,0.02,RA,,0.15,WeatherDisplay:10.37,2013-01-10 17:51:00,
2013-01-10 11:56:00,41.5,40.5,29.97,SE,134,0.0,0.0,96,0.01,-RA,,0.15,WeatherDisplay:10.37,2013-01-10 17:56:00,
2013-01-10 12:00:00,45.2,44.7,29.77,SW,225,0.0,0.0,98,0.00,CL,CL,0.12,WeatherDisplay:10.37,2013-01-10 18:00:00,
2013-01-10 12:01:00,41.5,40.5,29.97,SE,139,3.5,0.0,96,0.02,-RA,,0.16,WeatherDisplay:10.37,2013-01-10 18:01:00,
2013-01-10 12:06:00,41.5,40.5,29.97,SE,143,3.5,3.6,96,0.02,-RA,,0.16,WeatherDisplay:10.37,2013-01-10 18:06:00,
2013-01-10 12:11:00,41.5,40.5,29.97,SE,127,0.0,0.0,96,0.02,-RA,,0.16,WeatherDisplay:10.37,2013-01-10 18:11:00,
2013-01-10 12:16:00,41.7,40.7,29.97,SE,133,3.5,0.0,96,0.02,-RA,,0.16,WeatherDisplay:10.37,2013-01-10 18:16:00,
2013-01-10 12:21:00,41.7,40.7,29.94,South,186,3.5,0.0,96,0.02,-RA,,0.16,WeatherDisplay:10.37,2013-01-10 18:21:00,
2013-01-10 12:26:00,41.7,40.7,29.94,ESE,123,3.5,3.5,96,0.03,-RA,,0.17,WeatherDisplay:10.37,2013-01-10 18:26:00,
2013-01-10 12:31:00,41.9,40.8,29.94,SE,144,2.3,0.0,96,0.03,-RA,,0.17,WeatherDisplay:10.37,2013-01-10 18:31:00,
2013-01-10 12:36:00,42.1,41.0,29.94,SE,144,0.0,0.0,96,0.03,-RA,,0.17,WeatherDisplay:10.37,2013-01-10 18:36:00,
2013-01-10 12:41:00,42.1,41.0,29.94,SE,146,3.5,3.5,96,0.03,-RA,,0.17,WeatherDisplay:10.37,2013-01-10 18:41:00,
2013-01-10 12:46:00,42.3,41.2,29.94,SE,126,3.5,0.0,96,0.03,-RA,,0.17,WeatherDisplay:10.37,2013-01-10 18:46:00,
2013-01-10 12:51:00,42.4,41.4,29.91,SSE,155,2.3,0.0,96,0.02,-RA,,0.17,WeatherDisplay:10.37,2013-01-10 18:51:00,
2013-01-10 12:56:00,42.6,41.6,29.91,East,97,2.3,0.0,96,0.02,-RA,,0.17,WeatherDisplay:10.37,2013-01-10 18:56:00,
2013-01-10 13:00:00,45.9,45.3,29.74,SSW,203,0.0,3.0,98,0.00,CL,CL,0.12,WeatherDisplay:10.37,2013-01-10 19:00:00,
2013-01-10 13:01:00,42.8,41.7,29.91,East,99,0.0,0.0,96,0.02,-RA,,0.17,WeatherDisplay:10.37,2013-01-10 19:01:00,
2013-01-10 13:06:00,42.8,41.7,29.91,SE,139,3.5,3.5,96,0.01,-RA,,0.17,WeatherDisplay:10.37,2013-01-10 19:06:00,
2013-01-10 13:11:00,43.0,41.9,29.91,SE,139,2.3,0.0,96,0.01,-RA,,0.17,WeatherDisplay:10.37,2013-01-10 19:11:00,
2013-01-10 13:16:00,43.3,42.3,29.91,East,101,3.5,0.0,96,0.01,-RA,,0.17,WeatherDisplay:10.37,2013-01-10 19:16:00,
2013-01-10 13:21:00,43.7,42.6,29.91,SE,139,2.3,0.0,96,0.01,-RA,,0.17,WeatherDisplay:10.37,2013-01-10 19:21:00,
2013-01-10 13:26:00,44.2,43.2,29.91,ESE,122,0.0,0.0,96,0.01,OVC,,0.17,WeatherDisplay:10.37,2013-01-10 19:26:00,
2013-01-10 13:31:00,44.6,43.5,29.91,ESE,122,0.0,0.0,96,0.00,OVC,,0.18,WeatherDisplay:10.37,2013-01-10 19:31:00,
2013-01-10 13:36:00,44.8,43.7,29.88,SE,134,2.3,0.0,96,0.01,-RA,,0.18,WeatherDisplay:10.37,2013-01-10 19:36:00,
2013-01-10 13:41:00,44.8,43.7,29.88,SE,132,4.9,4.9,96,0.01,-RA,,0.18,WeatherDisplay:10.37,2013-01-10 19:41:00,
2013-01-10 13:46:00,44.8,43.7,29.88,SSE,162,3.5,3.5,96,0.01,-RA,,0.18,WeatherDisplay:10.37,2013-01-10 19:46:00,
2013-01-10 13:51:00,45.0,43.9,29.88,SE,130,0.0,0.0,96,0.01,-RA,,0.18,WeatherDisplay:10.37,2013-01-10 19:51:00,
2013-01-10 13:56:00,45.1,44.1,29.88,ESE,103,5.8,5.8,96,0.01,-RA,,0.18,WeatherDisplay:10.37,2013-01-10 19:56:00,
2013-01-10 14:00:00,46.6,46.3,29.74,South,180,0.0,3.0,99,0.00,CL,CL,0.12,WeatherDisplay:10.37,2013-01-10 20:00:00,
2013-01-10 14:01:00,45.3,44.2,29.88,ESE,115,3.5,3.5,96,0.01,-RA,,0.18,WeatherDisplay:10.37,2013-01-10 20:01:00,
2013-01-10 14:06:00,45.1,44.1,29.88,ESE,115,2.3,0.0,96,0.01,-RA,,0.18,WeatherDisplay:10.37,2013-01-10 20:06:00,
2013-01-10 14:11:00,45.1,44.1,29.88,ESE,107,3.5,0.0,96,0.01,-RA,,0.18,WeatherDisplay:10.37,2013-01-10 20:11:00,
2013-01-10 14:17:00,45.1,44.1,29.88,ESE,110,0.0,0.0,96,0.01,-RA,,0.18,WeatherDisplay:10.37,2013-01-10 20:17:00,
2013-01-10 14:22:00,45.3,44.2,29.88,ESE,114,0.0,0.0,96,0.01,-RA,,0.18,WeatherDisplay:10.37,2013-01-10 20:22:00,
2013-01-10 14:27:00,45.5,44.4,29.88,ESE,114,2.2,0.0,96,0.01,-RA,,0.18,WeatherDisplay:10.37,2013-01-10 20:27:00,
2013-01-10 14:32:00,45.9,44.8,29.88,ESE,114,0.0,0.0,96,0.00,-RA,,0.18,WeatherDisplay:10.37,2013-01-10 20:32:00,
2013-01-10 14:37:00,45.9,44.8,29.88,ESE,114,0.0,0.0,96,0.00,-RA,,0.18,WeatherDisplay:10.37,2013-01-10 20:37:00,
2013-01-10 14:42:00,45.7,44.6,29.88,ESE,114,0.0,0.0,96,0.00,-RA,,0.18,WeatherDisplay:10.37,2013-01-10 20:42:00,
2013-01-10 14:47:00,45.5,44.4,29.88,ESE,114,2.7,2.7,96,0.00,-RA,,0.18,WeatherDisplay:10.37,2013-01-10 20:47:00,
2013-01-10 14:52:00,45.1,44.1,29.88,SE,128,4.9,0.0,96,0.00,-RA,,0.18,WeatherDisplay:10.37,2013-01-10 20:52:00,
2013-01-10 14:57:00,45.1,44.1,29.88,SE,125,0.0,0.0,96,0.00,-RA,,0.18,WeatherDisplay:10.37,2013-01-10 20:57:00,
2013-01-10 15:00:00,47.1,46.9,29.74,SSW,203,1.0,8.0,99,0.00,CL,CL,0.12,WeatherDisplay:10.37,2013-01-10 21:00:00,
2013-01-10 15:02:00,45.0,43.6,29.88,SE,125,2.3,0.0,95,0.00,-RA,,0.18,WeatherDisplay:10.37,2013-01-10 21:02:00,
2013-01-10 15:07:00,44.8,43.4,29.88,SE,125,0.0,0.0,95,0.00,-RA,,0.18,WeatherDisplay:10.37,2013-01-10 21:07:00,
2013-01-10 15:12:00,44.8,43.4,29.88,SE,125,0.0,0.0,95,0.00,OVC,,0.18,WeatherDisplay:10.37,2013-01-10 21:12:00,
2013-01-10 15:18:00,44.6,43.3,29.85,SE,125,3.5,0.0,95,0.00,OVC,,0.18,WeatherDisplay:10.37,2013-01-10 21:18:00,
2013-01-10 15:23:00,44.6,43.3,29.85,SE,125,2.3,2.3,95,0.00,OVC,,0.18,WeatherDisplay:10.37,2013-01-10 21:23:00,
2013-01-10 15:28:00,44.4,43.4,29.85,SE,125,0.0,0.0,96,0.00,OVC,,0.18,WeatherDisplay:10.37,2013-01-10 21:28:00,
2013-01-10 15:33:00,44.4,43.4,29.88,SE,125,0.0,0.0,96,0.01,RA,,0.19,WeatherDisplay:10.37,2013-01-10 21:33:00,
2013-01-10 15:38:00,44.4,43.4,29.88,SE,125,0.0,0.0,96,0.01,RA,,0.19,WeatherDisplay:10.37,2013-01-10 21:38:00,
2013-01-10 15:43:00,44.4,43.4,29.88,SE,125,0.0,0.0,96,0.01,-RA,,0.20,WeatherDisplay:10.37,2013-01-10 21:43:00,
2013-01-10 15:48:00,44.4,43.4,29.88,SE,125,0.0,0.0,96,0.02,-RA,,0.20,WeatherDisplay:10.37,2013-01-10 21:48:00,
2013-01-10 15:53:00,44.4,43.4,29.88,SE,125,0.0,0.0,96,0.02,-RA,,0.20,WeatherDisplay:10.37,2013-01-10 21:53:00,
2013-01-10 15:58:00,44.4,43.4,29.88,SE,125,0.0,0.0,96,0.03,-RA,,0.21,WeatherDisplay:10.37,2013-01-10 21:58:00,
2013-01-10 16:00:00,47.1,46.9,29.71,South,180,1.0,3.0,99,0.00,CL,CL,0.12,WeatherDisplay:10.37,2013-01-10 22:00:00,
2013-01-10 16:03:00,44.4,43.4,29.88,SE,126,0.0,0.0,96,0.03,-RA,,0.21,WeatherDisplay:10.37,2013-01-10 22:03:00,
2013-01-10 16:08:00,44.4,43.4,29.88,SE,125,0.0,0.0,96,0.03,-RA,,0.21,WeatherDisplay:10.37,2013-01-10 22:08:00,
2013-01-10 16:13:00,44.6,43.5,29.88,SE,125,3.5,0.0,96,0.03,-RA,,0.21,WeatherDisplay:10.37,2013-01-10 22:13:00,
2013-01-10 16:18:00,44.4,43.4,29.85,SE,125,2.3,0.0,96,0.04,-RA,,0.22,WeatherDisplay:10.37,2013-01-10 22:18:00,
2013-01-10 16:23:00,44.4,43.4,29.85,SE,125,0.0,0.0,96,0.04,-RA,,0.22,WeatherDisplay:10.37,2013-01-10 22:23:00,
2013-01-10 16:28:00,44.4,43.4,29.85,SE,125,0.0,0.0,96,0.04,-RA,,0.22,WeatherDisplay:10.37,2013-01-10 22:28:00,
2013-01-10 16:33:00,44.4,43.4,29.85,SE,125,0.0,0.0,96,0.03,-RA,,0.22,WeatherDisplay:10.37,2013-01-10 22:33:00,
2013-01-10 16:38:00,44.4,43.4,29.85,SE,125,0.0,0.0,96,0.03,-RA,,0.22,WeatherDisplay:10.37,2013-01-10 22:38:00,
2013-01-10 16:43:00,44.4,43.4,29.85,SE,125,0.0,0.0,96,0.03,-RA,,0.22,WeatherDisplay:10.37,2013-01-10 22:43:00,
2013-01-10 16:49:00,44.2,43.2,29.85,SE,125,0.0,0.0,96,0.03,CLR,,0.22,WeatherDisplay:10.37,2013-01-10 22:49:00,
2013-01-10 16:54:00,44.2,43.2,29.85,SE,125,0.0,0.0,96,0.02,-RA,,0.22,WeatherDisplay:10.37,2013-01-10 22:54:00,
2013-01-10 16:59:00,44.1,43.0,29.85,SE,125,2.3,0.0,96,0.02,-RA,,0.22,WeatherDisplay:10.37,2013-01-10 22:59:00,
2013-01-10 17:00:00,47.7,47.4,29.68,SE,135,3.0,3.0,99,0.00,CL,CL,0.12,WeatherDisplay:10.37,2013-01-10 23:00:00,
2013-01-10 17:05:00,43.9,42.8,29.85,SE,125,0.0,0.0,96,0.02,OVC,,0.22,WeatherDisplay:10.37,2013-01-10 23:05:00,
2013-01-10 17:10:00,43.9,42.8,29.85,SE,125,0.0,0.0,96,0.01,OVC,,0.22,WeatherDisplay:10.37,2013-01-10 23:10:00,
2013-01-10 17:15:00,43.7,42.6,29.85,SE,125,0.0,0.0,96,0.01,OVC,,0.22,WeatherDisplay:10.37,2013-01-10 23:15:00,
2013-01-10 17:20:00,43.7,42.6,29.85,SE,125,0.0,0.0,96,0.01,OVC,,0.22,WeatherDisplay:10.37,2013-01-10 23:20:00,
2013-01-10 17:25:00,43.7,42.6,29.85,SE,125,0.0,0.0,96,0.01,OVC,,0.22,WeatherDisplay:10.37,2013-01-10 23:25:00,
2013-01-10 17:30:00,43.7,42.6,29.85,SE,125,0.0,0.0,96,0.00,OVC,,0.22,WeatherDisplay:10.37,2013-01-10 23:30:00,
2013-01-10 17:35:00,43.7,42.6,29.83,SE,125,2.3,0.0,96,0.00,OVC,,0.22,WeatherDisplay:10.37,2013-01-10 23:35:00,
2013-01-10 17:40:00,43.5,42.5,29.83,SE,125,0.0,0.0,96,0.00,OVC,,0.22,WeatherDisplay:10.37,2013-01-10 23:40:00,
2013-01-10 17:45:00,43.5,42.5,29.83,SE,124,0.0,0.0,96,0.00,OVC,,0.22,WeatherDisplay:10.37,2013-01-10 23:45:00,
2013-01-10 17:50:00,43.5,42.5,29.83,SE,125,0.0,0.0,96,0.00,OVC,,0.22,WeatherDisplay:10.37,2013-01-10 23:50:00,
2013-01-10 17:55:00,43.5,42.7,29.83,SE,125,0.0,0.0,97,0.00,OVC,,0.22,WeatherDisplay:10.37,2013-01-10 23:55:00,
2013-01-10 18:00:00,43.5,42.7,29.83,SE,125,0.0,0.0,97,0.00,OVC,,0.22,WeatherDisplay:10.37,2013-01-11 00:00:00,
2013-01-10 18:05:00,43.5,42.7,29.85,SE,125,0.0,0.0,97,0.00,OVC,,0.22,WeatherDisplay:10.37,2013-01-11 00:05:00,
2013-01-10 18:10:00,43.5,42.7,29.85,SE,125,0.0,0.0,97,0.00,OVC,,0.22,WeatherDisplay:10.37,2013-01-11 00:10:00,
2013-01-10 18:15:00,43.5,42.7,29.85,SE,125,3.5,0.0,97,0.00,OVC,,0.22,WeatherDisplay:10.37,2013-01-11 00:15:00,
2013-01-10 18:20:00,43.5,42.7,29.85,SE,125,0.0,3.0,97,0.00,OVC,,0.22,WeatherDisplay:10.37,2013-01-11 00:20:00,
2013-01-10 18:25:00,43.4,42.6,29.85,SE,125,0.0,2.0,97,0.00,OVC,,0.22,WeatherDisplay:10.37,2013-01-11 00:25:00,
2013-01-10 18:30:00,43.5,42.7,29.85,SE,125,3.5,0.0,97,0.00,OVC,,0.22,WeatherDisplay:10.37,2013-01-11 00:30:00,
2013-01-10 18:35:00,43.5,42.7,29.85,ESE,107,3.5,3.5,97,0.00,OVC,,0.22,WeatherDisplay:10.37,2013-01-11 00:35:00,
2013-01-10 18:40:00,43.5,42.7,29.85,SE,141,2.3,0.0,97,0.00,OVC,,0.22,WeatherDisplay:10.37,2013-01-11 00:40:00,
2013-01-10 18:45:00,43.5,42.7,29.85,SE,141,2.3,0.0,97,0.00,OVC,,0.22,WeatherDisplay:10.37,2013-01-11 00:45:00,
2013-01-10 18:50:00,43.5,42.7,29.83,SE,141,0.0,3.0,97,0.00,OVC,,0.22,WeatherDisplay:10.37,2013-01-11 00:50:00,
2013-01-10 18:55:00,43.5,42.7,29.83,SE,130,1.0,3.0,97,0.00,-RA,,0.22,WeatherDisplay:10.37,2013-01-11 00:55:00,
2013-01-10 19:00:00,43.5,42.7,29.83,ENE,64,0.0,0.0,97,0.00,-RA,,0.22,WeatherDisplay:10.37,2013-01-11 01:00:00,
2013-01-10 19:05:00,43.5,42.7,29.83,NNE,25,2.7,0.0,97,0.00,-RA,,0.22,WeatherDisplay:10.37,2013-01-11 01:05:00,
2013-01-10 19:10:00,43.7,42.9,29.83,NNE,18,2.3,0.0,97,0.00,-RA,,0.22,WeatherDisplay:10.37,2013-01-11 01:10:00,
2013-01-10 19:15:00,43.7,42.9,29.83,NNE,26,2.3,2.7,97,0.00,-RA,,0.22,WeatherDisplay:10.37,2013-01-11 01:15:00,
2013-01-10 19:20:00,43.7,42.9,29.80,NNE,26,3.5,3.5,97,0.00,-RA,,0.22,WeatherDisplay:10.37,2013-01-11 01:20:00,
2013-01-10 19:25:00,43.7,42.9,29.80,NNE,33,5.8,5.8,97,0.00,-RA,,0.22,WeatherDisplay:10.37,2013-01-11 01:25:00,
2013-01-10 19:30:00,43.7,42.9,29.80,NE,38,5.8,5.8,97,0.00,-RA,,0.22,WeatherDisplay:10.37,2013-01-11 01:30:00,
2013-01-10 19:35:00,43.7,42.9,29.77,NNE,23,3.5,3.5,97,0.00,-RA,,0.22,WeatherDisplay:10.37,2013-01-11 01:35:00,
2013-01-10 19:40:00,43.7,42.9,29.77,NNE,23,2.3,0.0,97,0.00,-RA,,0.22,WeatherDisplay:10.37,2013-01-11 01:40:00,
2013-01-10 19:45:00,43.5,42.7,29.77,NNE,23,3.5,0.0,97,0.00,-RA,,0.22,WeatherDisplay:10.37,2013-01-11 01:45:00,
2013-01-10 19:50:00,43.5,42.7,29.77,NNE,23,0.0,0.0,97,0.00,-RA,,0.22,WeatherDisplay:10.37,2013-01-11 01:50:00,
2013-01-10 19:55:00,43.5,42.7,29.77,NNE,23,0.0,0.0,97,0.00,OVC,,0.22,WeatherDisplay:10.37,2013-01-11 01:55:00,
2013-01-10 20:00:00,43.3,42.5,29.77,NNE,23,0.0,0.0,97,0.00,OVC,,0.22,WeatherDisplay:10.37,2013-01-11 02:00:00,
2013-01-10 20:05:00,43.3,42.5,29.77,West,260,0.0,0.0,97,0.00,OVC,,0.22,WeatherDisplay:10.37,2013-01-11 02:05:00,
2013-01-10 20:10:00,43.3,42.5,29.77,West,260,0.0,0.0,97,0.00,OVC,,0.22,WeatherDisplay:10.37,2013-01-11 02:10:00,
2013-01-10 20:15:00,43.2,42.4,29.77,SE,125,3.5,3.5,97,0.00,OVC,,0.22,WeatherDisplay:10.37,2013-01-11 02:15:00,
2013-01-10 20:21:00,43.2,42.4,29.77,SE,125,3.5,3.5,97,0.00,OVC,,0.22,WeatherDisplay:10.37,2013-01-11 02:21:00,
2013-01-10 20:26:00,43.2,42.6,29.77,SE,143,3.5,3.5,98,0.00,OVC,,0.22,WeatherDisplay:10.37,2013-01-11 02:26:00,
2013-01-10 20:31:00,43.3,42.8,29.77,SE,133,4.6,4.6,98,0.00,OVC,,0.22,WeatherDisplay:10.37,2013-01-11 02:31:00,
2013-01-10 20:36:00,43.3,42.8,29.80,ESE,113,3.5,0.0,98,0.00,CLR,,0.22,WeatherDisplay:10.37,2013-01-11 02:36:00,
2013-01-10 20:39:00,43.3,42.8,29.80,ESE,112,3.5,0.0,98,0.00,CLR,,0.22,WeatherDisplay:10.37,2013-01-11 02:39:00,
2013-01-10 20:41:00,43.3,42.8,29.80,ESE,112,3.5,0.0,98,0.00,CLR,,0.22,WeatherDisplay:10.37,2013-01-11 02:41:00,
2013-01-10 20:46:00,43.3,42.8,29.80,ESE,112,3.5,0.0,98,0.00,CLR,,0.22,WeatherDisplay:10.37,2013-01-11 02:46:00,
2013-01-10 20:58:00,43.3,42.8,29.80,ESE,112,3.5,0.0,98,0.00,CLR,,0.22,WeatherDisplay:10.37,2013-01-11 02:58:00,
2013-01-10 21:00:00,49.1,46.6,29.65,SW,225,5.0,6.0,91,0.00,CL,CL,0.12,WeatherDisplay:10.37,2013-01-11 03:00:00,
2013-01-10 21:05:00,43.3,42.8,29.80,SSE,154,1.0,4.0,98,0.00,CLR,,0.22,WeatherDisplay:10.37,2013-01-11 03:05:00,
2013-01-10 21:10:00,43.5,43.0,29.80,SE,131,2.3,0.0,98,0.00,OVC,,0.22,WeatherDisplay:10.37,2013-01-11 03:10:00,
2013-01-10 21:15:00,43.5,43.0,29.80,SE,131,0.0,0.0,98,0.00,OVC,,0.22,WeatherDisplay:10.37,2013-01-11 03:15:00,
2013-01-10 21:20:00,43.5,43.0,29.80,SE,131,0.0,0.0,98,0.00,OVC,,0.22,WeatherDisplay:10.37,2013-01-11 03:20:00,
2013-01-10 21:25:00,43.5,43.0,29.80,SE,131,0.0,0.0,98,0.00,OVC,,0.22,WeatherDisplay:10.37,2013-01-11 03:25:00,
2013-01-10 21:31:00,43.5,43.0,29.80,SE,131,0.0,0.0,98,0.00,OVC,,0.22,WeatherDisplay:10.37,2013-01-11 03:31:00,
2013-01-10 21:36:00,43.5,43.0,29.80,SE,131,0.0,0.0,98,0.00,OVC,,0.22,WeatherDisplay:10.37,2013-01-11 03:36:00,
2013-01-10 21:41:00,43.5,43.0,29.80,SE,131,0.0,0.0,98,0.00,OVC,,0.22,WeatherDisplay:10.37,2013-01-11 03:41:00,
2013-01-10 21:46:00,43.5,43.0,29.80,SE,131,0.0,0.0,98,0.00,OVC,,0.22,WeatherDisplay:10.37,2013-01-11 03:46:00,
2013-01-10 21:51:00,43.5,43.0,29.80,SE,131,0.0,0.0,98,0.00,OVC,,0.22,WeatherDisplay:10.37,2013-01-11 03:51:00,
2013-01-10 21:56:00,43.5,43.0,29.80,SE,131,0.0,0.0,98,0.00,OVC,,0.22,WeatherDisplay:10.37,2013-01-11 03:56:00,
2013-01-10 22:00:00,51.5,46.9,29.65,SSW,203,7.0,8.0,84,0.00,CL,CL,0.12,WeatherDisplay:10.37,2013-01-11 04:00:00,
2013-01-10 22:01:00,43.5,43.0,29.80,SE,131,0.0,0.0,98,0.00,OVC,,0.22,WeatherDisplay:10.37,2013-01-11 04:01:00,
2013-01-10 22:06:00,43.5,43.0,29.80,SE,131,0.0,0.0,98,0.00,OVC,,0.22,WeatherDisplay:10.37,2013-01-11 04:06:00,
2013-01-10 22:11:00,43.5,43.0,29.80,SE,131,0.0,0.0,98,0.00,OVC,,0.22,WeatherDisplay:10.37,2013-01-11 04:11:00,
2013-01-10 22:17:00,43.5,43.0,29.80,SE,131,0.0,0.0,98,0.00,OVC,,0.24,WeatherDisplay:10.37,2013-01-11 04:17:00,
2013-01-10 22:22:00,43.5,43.0,29.80,SE,131,0.0,0.0,98,0.02,RA,,0.24,WeatherDisplay:10.37,2013-01-11 04:22:00,
2013-01-10 22:27:00,43.5,43.0,29.80,SE,131,0.0,0.0,98,0.02,RA,,0.24,WeatherDisplay:10.37,2013-01-11 04:27:00,
2013-01-10 22:32:00,43.5,43.0,29.80,SE,131,0.0,0.0,98,0.02,OVC,,0.24,WeatherDisplay:10.37,2013-01-11 04:32:00,
2013-01-10 22:37:00,43.5,43.0,29.77,SE,131,0.0,0.0,98,0.02,OVC,,0.24,WeatherDisplay:10.37,2013-01-11 04:37:00,
2013-01-10 22:42:00,43.5,43.0,29.77,SE,131,0.0,0.0,98,0.02,OVC,,0.24,WeatherDisplay:10.37,2013-01-11 04:42:00,
2013-01-10 22:47:00,43.5,43.0,29.77,SE,131,0.0,0.0,98,0.02,OVC,,0.24,WeatherDisplay:10.37,2013-01-11 04:47:00,
2013-01-10 22:52:00,43.7,43.2,29.77,SE,131,0.0,0.0,98,0.02,OVC,,0.24,WeatherDisplay:10.37,2013-01-11 04:52:00,
2013-01-10 22:57:00,43.7,43.2,29.77,SE,131,0.0,0.0,98,0.02,OVC,,0.24,WeatherDisplay:10.37,2013-01-11 04:57:00,
2013-01-10 23:00:00,53.4,46.7,29.62,South,180,6.0,6.0,78,0.00,CL,CL,0.12,WeatherDisplay:10.37,2013-01-11 05:00:00,
2013-01-10 23:01:00,43.9,43.4,29.77,SE,131,0.0,0.0,98,0.02,OVC,,0.24,WeatherDisplay:10.37,2013-01-11 05:01:00,
2013-01-10 23:03:00,43.9,43.4,29.77,SE,131,0.0,0.0,98,0.02,OVC,,0.24,WeatherDisplay:10.37,2013-01-11 05:03:00,
2013-01-10 23:08:00,44.1,43.5,29.77,SE,131,0.0,0.0,98,0.02,OVC,,0.24,WeatherDisplay:10.37,2013-01-11 05:08:00,
2013-01-10 23:13:00,44.1,43.5,29.77,SE,129,0.0,0.0,98,0.02,OVC,,0.24,WeatherDisplay:10.37,2013-01-11 05:13:00,
2013-01-10 23:18:00,44.1,43.5,29.77,SE,131,0.0,0.0,98,0.00,OVC,,0.24,WeatherDisplay:10.37,2013-01-11 05:18:00,
2013-01-10 23:23:00,44.1,43.5,29.77,SE,132,0.0,0.0,98,0.00,CLR,,0.24,WeatherDisplay:10.37,2013-01-11 05:23:00,
2013-01-10 23:28:00,44.1,43.5,29.77,SW,226,0.0,0.0,98,0.00,CLR,,0.24,WeatherDisplay:10.37,2013-01-11 05:28:00,
2013-01-10 23:33:00,44.2,43.7,29.77,SW,225,0.0,0.0,98,0.00,CLR,,0.24,WeatherDisplay:10.37,2013-01-11 05:33:00,
2013-01-10 23:38:00,44.4,43.9,29.77,SW,225,0.0,0.0,98,0.00,CLR,,0.24,WeatherDisplay:10.37,2013-01-11 05:38:00,
2013-01-10 23:43:00,44.4,43.9,29.77,SW,226,0.0,0.0,98,0.00,CLR,,0.24,WeatherDisplay:10.37,2013-01-11 05:43:00,
2013-01-10 23:48:00,44.6,44.1,29.77,SW,225,0.0,0.0,98,0.00,CLR,,0.24,WeatherDisplay:10.37,2013-01-11 05:48:00,
2013-01-10 23:53:00,44.6,44.1,29.77,SW,226,0.0,0.0,98,0.00,CLR,,0.24,WeatherDisplay:10.37,2013-01-11 05:53:00,
2013-01-10 23:58:00,44.4,43.9,29.77,SW,226,0.0,0.0,98,0.00,CLR,,0.24,WeatherDisplay:10.37,2013-01-11 05:58:00,